Regional Weather Roundup
Issued by NWS Albany, NY

Home | Current Version | Previous Version | Text Only | Print | Product List | Glossary On
Versions: 1 2 3 4 5 6 7 8 9 10 11 12 13 14 15 16 17 18 19 20 21 22 23 24 25 26 27 28 29 30 31 32 33 34 35 36 37 38 39 40 41 42 43 44 45 46 47 48 49 50
000
ASUS41 KALY 171210
RWRALY

NEW YORK STATE HOURLY WEATHER ROUNDUP
NATIONAL WEATHER SERVICE ALBANY NY
700 AM EST TUE JAN 17 2017

NOTE: "FAIR" INDICATES FEW OR NO CLOUDS BELOW 12,000 FEET WITH NO
SIGNIFICANT WEATHER AND/OR NO OBSTRUCTIONS TO VISIBILITY.

NYZ032-033-038>043-046>054-057>066-NYZ062>081-082-084-171300-
EAST


CITY           SKY/WX    TMP DP  RH WIND       PRES   REMARKS
ALBANY         PTCLDY    20  17  88 CALM      30.24R
GLENS FALLS    MOCLDY    17  12  80 CALM      30.23R
POUGHKEEPSIE   CLOUDY    31  27  85 CALM      30.22R
NEWBURGH       MOCLDY    34  28  80 CALM      30.21S
MONTGOMERY     CLOUDY    34  27  75 CALM      30.19S
WHITE PLAINS   CLOUDY    37  26  64 CALM      30.20R
ISLIP          MOCLDY    37  28  70 CALM      30.22S
NEW YORK CITY  CLOUDY    42  29  59 W5        30.22S
CENTRAL PARK   CLOUDY    40  28  62 CALM      30.24S
$$

NYZ005>009-017-018-044>046-055-056-171300-
CENTRAL


CITY           SKY/WX    TMP DP  RH WIND       PRES   REMARKS
FULTON         CLOUDY    29  21  72 E3        30.16F
SYRACUSE       MOCLDY    26  22  84 E5        30.16F WCI  20
ROME           CLOUDY    19  17  92 CALM      30.21S
ELMIRA         CLOUDY    35  27  72 NE6       30.13F WCI  30
BINGHAMTON     CLOUDY    30  26  85 SE6       30.12F WCI  24
MONTICELLO     PTCLDY    30  27  86 CALM      30.16F
$$

NYZ026>034-041>043-087-171300-
NORTH


CITY           SKY/WX    TMP DP  RH WIND       PRES   REMARKS
WATERTOWN      CLOUDY    22  20  92 E5        30.18F FOG     WCI  16
FORT DRUM      NOT AVBL
OGDENSBURG     FAIR      18  17  95 E3        30.21S
MASSENA        CLOUDY    18  15  88 CALM      30.25S
SARANAC LAKE   CLOUDY     6   1  80 NE3       30.14F
PLATTSBURGH    CLOUDY    21  17  84 CALM      30.24R
$$

NYZ001>004-010>016-019>021-085-171300-
WEST


CITY           SKY/WX    TMP DP  RH WIND       PRES   REMARKS
NIAGARA FALLS  LGT RAIN  36  29  75 E10       30.04F WCI  28
BUFFALO        LGT RAIN  36  31  82 E12       30.04F WCI  28
DUNKIRK        LGT RAIN  40  38  93 E7        29.98F
JAMESTOWN      CLOUDY    36  34  93 SE3       29.98F VSB 3/4
WELLSVILLE     LGT RAIN  37  33  85 SE10      30.05F WCI  30
ROCHESTER      CLOUDY    35  25  66 E6        30.12F WCI  30
PENN YAN       LGT RAIN  34  28  79 CALM      30.12F
$$

             KEY
       WCI = WIND CHILL INDEX
       VSB = VISIBILITY
       HX  = HEAT INDEX
$$



USA.gov is the U.S. government's official web portal to all federal, state and local government web resources and services.